Location: Ash Shall?l al Awwal
(24.0167°N, 32.8667°E)
Time: 05:05:40
(UTC+00:00)

Cosmos 2263 Rocket - Pass Details

Date: 02 March 2021
Orbit: 825 x 847 km, 71.0° (Epoch: 12 April)

Event Time Altitude Azimuth Distance (km) Brightness Sun altitude
Rises 16:28:17 0° 346° (NNW) 3,359 5.5 -9.1°
Reaches altitude 10° 16:30:44 10° 349° (N) 2,424 4.7 -9.7°
Maximum altitude 16:36:14 65° 71° (ENE) 906 2.1 -10.9°
Drops below altitude 10° 16:41:45 10° 153° (SSE) 2,424 4.3 -12.2°
Sets 16:44:12 0° 156° (SSE) 3,358 5.1 -12.7°
